This is the latest recevied weather packets stored in our database for station/object KK6LZB. If no packets are shown the sender has not sent any weather packets the latest 10 day(s).
| Time | Temp. | Humidity | Pressure | Rain* | Wind** | Luminosity | Snow |
|---|---|---|---|---|---|---|---|
| 1777777645 | 15° C | 92% | 1013.9 hPa | 0 mm | - | 0 W/m² | - |
| 1777777342 | 15° C | 92% | 1013.6 hPa | 0 mm | - | 0 W/m² | - |
| 1777777039 | 15.56° C | 92% | 1013.3 hPa | 0 mm | - | 0 W/m² | - |
| 1777776737 | 15.56° C | 91% | 1013.6 hPa | 0 mm | - | 0 W/m² | - |
| 1777776433 | 15.56° C | 91% | 1013.6 hPa | 0 mm | - | 0 W/m² | - |
| 1777776130 | 15.56° C | 91% | 1013.4 hPa | 0 mm | - | 1 W/m² | - |
| 1777775827 | 15.56° C | 90% | 1013.3 hPa | 0 mm | - | 2 W/m² | - |
| 1777775524 | 15.56° C | 89% | 1013.3 hPa | 0 mm | - | 3 W/m² | - |
| 1777775220 | 16.11° C | 88% | 1013.1 hPa | 0 mm | - | 6 W/m² | - |
| 1777774919 | 16.11° C | 88% | 1013 hPa | 0 mm | - | 9 W/m² | - |
| 1777774616 | 16.11° C | 87% | 1013.1 hPa | 0 mm | - | 12 W/m² | - |
| 1777774313 | 16.11° C | 88% | 1013.2 hPa | 0 mm | - | 12 W/m² | - |
| 1777774010 | 16.11° C | 87% | 1013.2 hPa | 0 mm | - | 18 W/m² | - |
| 1777773708 | 16.67° C | 87% | 1013.2 hPa | 0 mm | - | 22 W/m² | - |
| 1777773404 | 16.67° C | 85% | 1013.1 hPa | 0 mm | - | 28 W/m² | - |
| 1777773101 | 16.67° C | 86% | 1013 hPa | 0 mm | - | 27 W/m² | - |
| 1777772797 | 16.67° C | 84% | 1013 hPa | 0 mm | - | 32 W/m² | - |
| 1777772495 | 17.22° C | 83% | 1013 hPa | 0 mm | - | 33 W/m² | - |
| 1777772192 | 17.78° C | 82% | 1013 hPa | 0 mm | - | 45 W/m² | - |
| 1777771890 | 17.78° C | 81% | 1013 hPa | 0 mm | - | 45 W/m² | - |
| 1777771587 | 18.89° C | 78% | 1012.8 hPa | 0 mm | - | 49 W/m² | - |
| 1777771284 | 20° C | 76% | 1012.8 hPa | 0 mm | - | 68 W/m² | - |
| 1777770980 | 20° C | 75% | 1012.8 hPa | 0 mm | - | 89 W/m² | - |
| 1777770678 | 20.56° C | 75% | 1012.8 hPa | 0 mm | - | 101 W/m² | - |
| 1777770374 | 21.11° C | 73% | 1012.8 hPa | 0 mm | - | 113 W/m² | - |
* Rain latest hour (hover to see other rain measurements)
** Current wind speed in m/s (hover to see current wind gust speed)